Time,TemperatureF,DewpointF,PressureIn,WindDirection,WindDirectionDegrees,WindSpeedMPH,WindSpeedGustMPH,Humidity,HourlyPrecipIn,Conditions,Clouds,dailyrainin,SolarRadiationWatts/m^2,SoftwareType,DateUTC
2013-01-26 00:01:00,42.0,24.0,-100.00,SSW,212,5.0,7.0,49,0.00,,,0.00,0.000000,,2013-01-26 07:01:00,
2013-01-26 00:11:00,42.0,24.0,-100.00,SSW,212,5.0,7.0,49,0.00,,,0.00,0.000000,,2013-01-26 07:11:00,
2013-01-26 00:21:00,40.0,24.0,-100.00,WSW,251,4.0,9.0,53,0.00,,,0.00,0.000000,,2013-01-26 07:21:00,
2013-01-26 00:42:00,40.0,24.0,-100.00,WSW,251,4.0,9.0,53,0.00,,,0.00,0.000000,,2013-01-26 07:42:00,
2013-01-26 00:52:00,40.0,24.0,-100.00,WSW,251,4.0,9.0,53,0.00,,,0.00,0.000000,,2013-01-26 07:52:00,
2013-01-26 01:02:00,40.0,24.0,-100.00,WSW,251,4.0,9.0,53,0.00,,,0.00,0.000000,,2013-01-26 08:02:00,
2013-01-26 01:11:00,40.0,24.0,-100.00,WSW,251,4.0,9.0,53,0.00,,,0.00,0.000000,,2013-01-26 08:11:00,
2013-01-26 01:21:00,39.0,23.0,-100.00,WNW,303,10.0,12.0,52,0.00,,,0.00,0.000000,,2013-01-26 08:21:00,
2013-01-26 01:42:00,39.0,23.0,-100.00,WNW,303,10.0,12.0,52,0.00,,,0.00,0.000000,,2013-01-26 08:42:00,
2013-01-26 01:54:00,39.0,23.0,-100.00,WNW,303,10.0,12.0,52,0.00,,,0.00,0.000000,,2013-01-26 08:54:00,
2013-01-26 02:02:00,39.0,23.0,-100.00,WNW,303,10.0,12.0,52,0.00,,,0.00,0.000000,,2013-01-26 09:02:00,
2013-01-26 02:11:00,39.0,23.0,-100.00,WNW,303,10.0,12.0,52,0.00,,,0.00,0.000000,,2013-01-26 09:11:00,
2013-01-26 02:21:00,40.0,24.0,-100.00,WSW,253,6.0,13.0,53,0.00,,,0.00,0.000000,,2013-01-26 09:21:00,
2013-01-26 02:42:00,40.0,24.0,-100.00,WSW,253,6.0,13.0,53,0.00,,,0.00,0.000000,,2013-01-26 09:42:00,
2013-01-26 02:52:00,40.0,24.0,-100.00,WSW,253,6.0,13.0,53,0.00,,,0.00,0.000000,,2013-01-26 09:52:00,
2013-01-26 03:01:00,40.0,24.0,-100.00,WSW,253,6.0,13.0,53,0.00,,,0.00,0.000000,,2013-01-26 10:01:00,
2013-01-26 03:11:00,40.0,24.0,-100.00,WSW,253,6.0,13.0,53,0.00,,,0.00,0.000000,,2013-01-26 10:11:00,
2013-01-26 03:21:00,39.0,22.0,-100.00,WSW,247,4.0,8.0,51,0.00,,,0.00,0.000000,,2013-01-26 10:21:00,
2013-01-26 03:43:00,39.0,22.0,-100.00,WSW,247,4.0,8.0,51,0.00,,,0.00,0.000000,,2013-01-26 10:43:00,
2013-01-26 03:52:00,39.0,22.0,-100.00,WSW,247,4.0,8.0,51,0.00,,,0.00,0.000000,,2013-01-26 10:52:00,
2013-01-26 04:01:00,39.0,22.0,-100.00,WSW,247,4.0,8.0,51,0.00,,,0.00,0.000000,,2013-01-26 11:01:00,
2013-01-26 04:12:00,39.0,22.0,-100.00,WSW,247,4.0,8.0,51,0.00,,,0.00,0.000000,,2013-01-26 11:12:00,
2013-01-26 04:21:00,39.0,24.0,-100.00,NNW,337,5.0,6.0,54,0.00,,,0.00,0.000000,,2013-01-26 11:21:00,
2013-01-26 04:42:00,39.0,24.0,-100.00,NNW,337,5.0,6.0,54,0.00,,,0.00,0.000000,,2013-01-26 11:42:00,
2013-01-26 04:52:00,39.0,24.0,-100.00,NNW,337,5.0,6.0,54,0.00,,,0.00,0.000000,,2013-01-26 11:52:00,
2013-01-26 05:02:00,39.0,24.0,-100.00,NNW,337,5.0,6.0,54,0.00,,,0.00,0.000000,,2013-01-26 12:02:00,
2013-01-26 05:12:00,39.0,24.0,-100.00,NNW,337,5.0,6.0,54,0.00,,,0.00,0.000000,,2013-01-26 12:12:00,
2013-01-26 05:21:00,38.0,22.0,-100.00,NNW,330,7.0,11.0,53,0.00,,,0.00,0.000000,,2013-01-26 12:21:00,
2013-01-26 05:42:00,38.0,22.0,-100.00,NNW,330,7.0,11.0,53,0.00,,,0.00,0.000000,,2013-01-26 12:42:00,
2013-01-26 05:53:00,38.0,22.0,-100.00,NNW,330,7.0,11.0,53,0.00,,,0.00,0.000000,,2013-01-26 12:53:00,
2013-01-26 06:03:00,38.0,22.0,-100.00,NNW,330,7.0,11.0,53,0.00,,,0.00,0.000000,,2013-01-26 13:03:00,
2013-01-26 06:12:00,38.0,22.0,-100.00,NNW,330,7.0,11.0,53,0.00,,,0.00,0.000000,,2013-01-26 13:12:00,
2013-01-26 06:21:00,37.0,23.0,-100.00,NNW,332,10.0,12.0,57,0.00,,,0.00,0.000000,,2013-01-26 13:21:00,
2013-01-26 06:42:00,37.0,23.0,-100.00,NNW,332,10.0,12.0,57,0.00,,,0.00,0.000000,,2013-01-26 13:42:00,
2013-01-26 06:53:00,37.0,23.0,-100.00,NNW,332,10.0,12.0,57,0.00,,,0.00,0.000000,,2013-01-26 13:53:00,
2013-01-26 07:02:00,37.0,23.0,-100.00,NNW,332,10.0,12.0,57,0.00,,,0.00,0.000000,,2013-01-26 14:02:00,
2013-01-26 07:11:00,37.0,23.0,-100.00,NNW,332,10.0,12.0,57,0.00,,,0.00,0.000000,,2013-01-26 14:11:00,
2013-01-26 07:21:00,37.0,22.0,-100.00,NW,318,10.0,13.0,54,0.00,,,0.00,0.000000,,2013-01-26 14:21:00,
2013-01-26 07:43:00,37.0,22.0,-100.00,NW,318,10.0,13.0,54,0.00,,,0.00,0.000000,,2013-01-26 14:43:00,
2013-01-26 07:53:00,37.0,22.0,-100.00,NW,318,10.0,13.0,54,0.00,,,0.00,0.000000,,2013-01-26 14:53:00,
2013-01-26 08:02:00,37.0,22.0,-100.00,NW,318,10.0,13.0,54,0.00,,,0.00,0.000000,,2013-01-26 15:02:00,
2013-01-26 08:12:00,37.0,22.0,-100.00,NW,318,10.0,13.0,54,0.00,,,0.00,0.000000,,2013-01-26 15:12:00,
2013-01-26 08:21:00,38.0,23.0,-100.00,WSW,255,9.0,15.0,55,0.00,,,0.00,14.000000,,2013-01-26 15:21:00,
2013-01-26 08:43:00,38.0,23.0,-100.00,WSW,255,9.0,15.0,55,0.00,,,0.00,14.000000,,2013-01-26 15:43:00,
2013-01-26 08:53:00,38.0,23.0,-100.00,WSW,255,9.0,15.0,55,0.00,,,0.00,14.000000,,2013-01-26 15:53:00,
2013-01-26 09:02:00,38.0,23.0,-100.00,WSW,255,9.0,15.0,55,0.00,,,0.00,14.000000,,2013-01-26 16:02:00,
2013-01-26 09:12:00,38.0,23.0,-100.00,WSW,255,9.0,15.0,55,0.00,,,0.00,14.000000,,2013-01-26 16:12:00,
2013-01-26 09:21:00,38.0,22.0,-100.00,WSW,258,10.0,15.0,52,0.00,,,0.00,43.000000,,2013-01-26 16:21:00,
2013-01-26 09:43:00,38.0,22.0,-100.00,WSW,258,10.0,15.0,52,0.00,,,0.00,43.000000,,2013-01-26 16:43:00,
2013-01-26 09:53:00,38.0,22.0,-100.00,WSW,258,10.0,15.0,52,0.00,,,0.00,43.000000,,2013-01-26 16:53:00,
2013-01-26 10:03:00,38.0,22.0,-100.00,WSW,258,10.0,15.0,52,0.00,,,0.00,43.000000,,2013-01-26 17:03:00,
2013-01-26 10:12:00,38.0,22.0,-100.00,WSW,258,10.0,15.0,52,0.00,,,0.00,43.000000,,2013-01-26 17:12:00,
2013-01-26 10:21:00,43.0,25.0,-100.00,SW,231,6.0,15.0,48,0.00,,,0.00,239.000000,,2013-01-26 17:21:00,
2013-01-26 10:42:00,43.0,25.0,-100.00,SW,231,6.0,15.0,48,0.00,,,0.00,239.000000,,2013-01-26 17:42:00,
2013-01-26 10:53:00,43.0,25.0,-100.00,SW,231,6.0,15.0,48,0.00,,,0.00,239.000000,,2013-01-26 17:53:00,
2013-01-26 11:02:00,43.0,25.0,-100.00,SW,231,6.0,15.0,48,0.00,,,0.00,239.000000,,2013-01-26 18:02:00,
2013-01-26 11:11:00,43.0,25.0,-100.00,SW,231,6.0,15.0,48,0.00,,,0.00,239.000000,,2013-01-26 18:11:00,
2013-01-26 11:21:00,46.0,26.0,-100.00,West,266,6.0,10.0,45,0.00,,,0.00,341.000000,,2013-01-26 18:21:00,
2013-01-26 11:42:00,46.0,26.0,-100.00,West,266,6.0,10.0,45,0.00,,,0.00,341.000000,,2013-01-26 18:42:00,
2013-01-26 11:52:00,46.0,26.0,-100.00,West,266,6.0,10.0,45,0.00,,,0.00,341.000000,,2013-01-26 18:52:00,
2013-01-26 12:03:00,46.0,26.0,-100.00,West,266,6.0,10.0,45,0.00,,,0.00,341.000000,,2013-01-26 19:03:00,
2013-01-26 12:11:00,46.0,26.0,-100.00,West,266,6.0,10.0,45,0.00,,,0.00,341.000000,,2013-01-26 19:11:00,
2013-01-26 12:21:00,51.0,28.0,-100.00,SE,127,4.0,9.0,40,0.00,,,0.00,371.000000,,2013-01-26 19:21:00,
2013-01-26 12:43:00,51.0,28.0,-100.00,SE,127,4.0,9.0,40,0.00,,,0.00,371.000000,,2013-01-26 19:43:00,
2013-01-26 12:52:00,51.0,28.0,-100.00,SE,127,4.0,9.0,40,0.00,,,0.00,371.000000,,2013-01-26 19:52:00,
2013-01-26 13:02:00,51.0,28.0,-100.00,SE,127,4.0,9.0,40,0.00,,,0.00,371.000000,,2013-01-26 20:02:00,
2013-01-26 13:11:00,51.0,28.0,-100.00,SE,127,4.0,9.0,40,0.00,,,0.00,371.000000,,2013-01-26 20:11:00,
2013-01-26 13:21:00,55.0,28.0,-100.00,SSW,195,4.0,6.0,35,0.00,,,0.00,390.000000,,2013-01-26 20:21:00,
2013-01-26 13:42:00,55.0,28.0,-100.00,SSW,195,4.0,6.0,35,0.00,,,0.00,390.000000,,2013-01-26 20:42:00,
2013-01-26 13:52:00,55.0,28.0,-100.00,SSW,195,4.0,6.0,35,0.00,,,0.00,390.000000,,2013-01-26 20:52:00,
2013-01-26 14:02:00,55.0,28.0,-100.00,SSW,195,4.0,6.0,35,0.00,,,0.00,390.000000,,2013-01-26 21:02:00,
2013-01-26 14:12:00,55.0,28.0,-100.00,SSW,195,4.0,6.0,35,0.00,,,0.00,390.000000,,2013-01-26 21:12:00,
2013-01-26 14:21:00,55.0,26.0,-100.00,ESE,123,7.0,10.0,32,0.00,,,0.00,338.000000,,2013-01-26 21:21:00,
2013-01-26 14:43:00,55.0,26.0,-100.00,ESE,123,7.0,10.0,32,0.00,,,0.00,338.000000,,2013-01-26 21:43:00,
2013-01-26 14:52:00,55.0,26.0,-100.00,ESE,123,7.0,10.0,32,0.00,,,0.00,338.000000,,2013-01-26 21:52:00,
2013-01-26 15:01:00,55.0,26.0,-100.00,ESE,123,7.0,10.0,32,0.00,,,0.00,338.000000,,2013-01-26 22:01:00,
2013-01-26 15:11:00,55.0,26.0,-100.00,ESE,123,7.0,10.0,32,0.00,,,0.00,338.000000,,2013-01-26 22:11:00,
2013-01-26 15:21:00,55.0,26.0,-100.00,ESE,118,5.0,9.0,32,0.00,,,0.00,252.000000,,2013-01-26 22:21:00,
2013-01-26 15:42:00,55.0,26.0,-100.00,ESE,118,5.0,9.0,32,0.00,,,0.00,252.000000,,2013-01-26 22:42:00,
2013-01-26 15:52:00,55.0,26.0,-100.00,ESE,118,5.0,9.0,32,0.00,,,0.00,252.000000,,2013-01-26 22:52:00,
2013-01-26 16:01:00,55.0,26.0,-100.00,ESE,118,5.0,9.0,32,0.00,,,0.00,252.000000,,2013-01-26 23:01:00,
2013-01-26 16:11:00,55.0,26.0,-100.00,ESE,118,5.0,9.0,32,0.00,,,0.00,252.000000,,2013-01-26 23:11:00,
2013-01-26 16:21:00,54.0,25.0,-100.00,East,82,4.0,6.0,32,0.00,,,0.00,112.000000,,2013-01-26 23:21:00,
2013-01-26 16:42:00,54.0,25.0,-100.00,East,82,4.0,6.0,32,0.00,,,0.00,112.000000,,2013-01-26 23:42:00,
2013-01-26 16:52:00,54.0,25.0,-100.00,East,82,4.0,6.0,32,0.00,,,0.00,112.000000,,2013-01-26 23:52:00,
2013-01-26 17:02:00,54.0,25.0,-100.00,East,82,4.0,6.0,32,0.00,,,0.00,112.000000,,2013-01-27 00:02:00,
2013-01-26 17:11:00,54.0,25.0,-100.00,East,82,4.0,6.0,32,0.00,,,0.00,112.000000,,2013-01-27 00:11:00,
2013-01-26 17:21:00,46.0,22.0,-100.00,ESE,107,11.0,14.0,39,0.00,,,0.00,26.000000,,2013-01-27 00:21:00,
2013-01-26 17:42:00,46.0,22.0,-100.00,ESE,107,11.0,14.0,39,0.00,,,0.00,26.000000,,2013-01-27 00:42:00,
2013-01-26 17:52:00,46.0,22.0,-100.00,ESE,107,11.0,14.0,39,0.00,,,0.00,26.000000,,2013-01-27 00:52:00,
2013-01-26 18:01:00,46.0,22.0,-100.00,ESE,107,11.0,14.0,39,0.00,,,0.00,26.000000,,2013-01-27 01:01:00,
2013-01-26 18:11:00,46.0,22.0,-100.00,ESE,107,11.0,14.0,39,0.00,,,0.00,26.000000,,2013-01-27 01:11:00,
2013-01-26 18:21:00,44.0,24.0,-100.00,ESE,112,13.0,18.0,45,0.00,,,0.00,0.000000,,2013-01-27 01:21:00,
2013-01-26 18:42:00,44.0,24.0,-100.00,ESE,112,13.0,18.0,45,0.00,,,0.00,0.000000,,2013-01-27 01:42:00,
2013-01-26 18:52:00,44.0,24.0,-100.00,ESE,112,13.0,18.0,45,0.00,,,0.00,0.000000,,2013-01-27 01:52:00,
2013-01-26 19:01:00,44.0,24.0,-100.00,ESE,112,13.0,18.0,45,0.00,,,0.00,0.000000,,2013-01-27 02:01:00,
2013-01-26 19:11:00,44.0,24.0,-100.00,ESE,112,13.0,18.0,45,0.00,,,0.00,0.000000,,2013-01-27 02:11:00,
2013-01-26 19:21:00,45.0,25.0,-100.00,ESE,123,15.0,18.0,46,0.00,,,0.00,0.000000,,2013-01-27 02:21:00,
2013-01-26 19:42:00,45.0,25.0,-100.00,ESE,123,15.0,18.0,46,0.00,,,0.00,0.000000,,2013-01-27 02:42:00,
2013-01-26 19:52:00,45.0,25.0,-100.00,ESE,123,15.0,18.0,46,0.00,,,0.00,0.000000,,2013-01-27 02:52:00,
2013-01-26 20:01:00,45.0,25.0,-100.00,ESE,123,15.0,18.0,46,0.00,,,0.00,0.000000,,2013-01-27 03:01:00,
2013-01-26 20:11:00,45.0,25.0,-100.00,ESE,123,15.0,18.0,46,0.00,,,0.00,0.000000,,2013-01-27 03:11:00,
2013-01-26 20:21:00,44.0,24.0,-100.00,SE,126,14.0,18.0,45,0.00,,,0.00,0.000000,,2013-01-27 03:21:00,
2013-01-26 20:42:00,44.0,24.0,-100.00,SE,126,14.0,18.0,45,0.00,,,0.00,0.000000,,2013-01-27 03:42:00,
2013-01-26 20:52:00,44.0,24.0,-100.00,SE,126,14.0,18.0,45,0.00,,,0.00,0.000000,,2013-01-27 03:52:00,
2013-01-26 21:01:00,44.0,24.0,-100.00,SE,126,14.0,18.0,45,0.00,,,0.00,0.000000,,2013-01-27 04:01:00,
2013-01-26 21:11:00,44.0,24.0,-100.00,SE,126,14.0,18.0,45,0.00,,,0.00,0.000000,,2013-01-27 04:11:00,
2013-01-26 21:21:00,42.0,25.0,-100.00,South,180,8.0,14.0,51,0.00,,,0.00,0.000000,,2013-01-27 04:21:00,
2013-01-26 21:42:00,42.0,25.0,-100.00,South,180,8.0,14.0,51,0.00,,,0.00,0.000000,,2013-01-27 04:42:00,
2013-01-26 21:52:00,42.0,25.0,-100.00,South,180,8.0,14.0,51,0.00,,,0.00,0.000000,,2013-01-27 04:52:00,
2013-01-26 22:03:00,42.0,25.0,-100.00,South,180,8.0,14.0,51,0.00,,,0.00,0.000000,,2013-01-27 05:03:00,
2013-01-26 22:11:00,42.0,25.0,-100.00,South,180,8.0,14.0,51,0.00,,,0.00,0.000000,,2013-01-27 05:11:00,
2013-01-26 22:21:00,40.0,22.0,-100.00,South,171,6.0,13.0,49,0.00,,,0.00,0.000000,,2013-01-27 05:21:00,
2013-01-26 22:42:00,40.0,22.0,-100.00,South,171,6.0,13.0,49,0.00,,,0.00,0.000000,,2013-01-27 05:42:00,
2013-01-26 22:52:00,40.0,22.0,-100.00,South,171,6.0,13.0,49,0.00,,,0.00,0.000000,,2013-01-27 05:52:00,
2013-01-26 23:01:00,40.0,22.0,-100.00,South,171,6.0,13.0,49,0.00,,,0.00,0.000000,,2013-01-27 06:01:00,
2013-01-26 23:11:00,40.0,22.0,-100.00,South,171,6.0,13.0,49,0.00,,,0.00,0.000000,,2013-01-27 06:11:00,
2013-01-26 23:21:00,39.0,23.0,-100.00,NNW,335,8.0,11.0,53,0.00,,,0.00,0.000000,,2013-01-27 06:21:00,
2013-01-26 23:42:00,39.0,23.0,-100.00,NNW,335,8.0,11.0,53,0.00,,,0.00,0.000000,,2013-01-27 06:42:00,
2013-01-26 23:52:00,39.0,23.0,-100.00,NNW,335,8.0,11.0,53,0.00,,,0.00,0.000000,,2013-01-27 06:52:00,